Welcome to the New NWS' Forecast!
Most changes are behind the scenes, but click here for differences you might notice.

Regional Weather Roundup (RWR)

Issued by Gray - Portland, ME (GYX)

                            
525 
ASUS41 KGYX 200010
RWRGYX
WEATHER ROUNDUP FOR MAINE AND NEW HAMPSHIRE
NATIONAL WEATHER SERVICE GRAY ME
800 PM EDT SUN AUG 19 2018

MEZ002-005-006-010-012-015-018-020-021-024-026-027-029-200100-
MAINE
  
CITY           SKY/WX    TMP DP  RH WIND       PRES   REMARKS
PORTLAND       FAIR      67  59  75 E7        30.12R                  
6HR MIN TEMP:  66; 6HR MAX TEMP:  75;                                

SANFORD        FAIR      62  60  93 CALM      30.13R                  
BAR HARBOR     FAIR      67  58  72 SE3       30.13R                  
WISCASSET      MOCLDY    69  60  73 SE3       30.14R                  
6HR MIN TEMP:  67; 6HR MAX TEMP:  79;                                

ROCKLAND       CLOUDY    66  59  78 VRB3      30.13R                  
FRYEBURG       FAIR      63  58  83 S3        30.13R                  
6HR MIN TEMP:  62; 6HR MAX TEMP:  80;                                

LEWISTONAUBURN MOCLDY    67  60  78 S5        30.13R                  
AUGUSTA        MOCLDY    71  56  58 E3        30.13R                  
6HR MIN TEMP:  71; 6HR MAX TEMP:  78;                                

WATERVILLE     FAIR      66  57  72 CALM      30.11R                  
BANGOR         MOCLDY    68  56  65 E3        30.13R                  
6HR MIN TEMP:  68; 6HR MAX TEMP:  79;                                

GREENVILLE     NOT AVBL                                               
MILLINOCKET    FAIR      63  56  78 CALM      30.16R                  
6HR MIN TEMP:  63; 6HR MAX TEMP:  76;                                

HOULTON        FAIR      59  57  93 E3        30.14R                  
6HR MIN TEMP:  59; 6HR MAX TEMP:  74;                                

PRESQUE ISLE   FAIR      65  59  81 CALM      30.16                   
6HR MIN TEMP:  65; 6HR MAX TEMP:  74;                                

FRENCHVILLE    FAIR      70  51  51 CALM      30.16R                  
6HR MIN TEMP:  70; 6HR MAX TEMP:  75;                                

CARIBOU        MOCLDY    65  57  75 SE3       30.15R                  
6HR MIN TEMP:  65; 6HR MAX TEMP:  76;                                

$$

NHZ002-005-008-009-011-012-014-200100-
NEW HAMPSHIRE
  
CITY           SKY/WX    TMP DP  RH WIND       PRES   REMARKS
PORTSMOUTH     MOCLDY    66  58  75 NE3       30.10R                  
ROCHESTER      FAIR      66  59  78 CALM      30.12R                  
6HR MIN TEMP:  65; 6HR MAX TEMP:  75;                                

NASHUA         FAIR      67  61  81 CALM      30.12R                  
MANCHESTER     MOCLDY    67  59  75 CALM      30.11R                  
6HR MIN TEMP:  67; 6HR MAX TEMP:  78;                                

CONCORD        FAIR      65  59  81 CALM      30.13R                  
6HR MIN TEMP:  65; 6HR MAX TEMP:  79;                                

LACONIA        FAIR      66  60  81 CALM      30.13R                  
PLYMOUTH       FAIR      65  62  88 CALM      30.11R                  
BERLIN         FAIR      65  58  78 CALM      30.14R                  
6HR MIN TEMP:  65; 6HR MAX TEMP:  79;                                

WHITEFIELD     FAIR      64  57  78 CALM      30.12R                  
6HR MIN TEMP:  64; 6HR MAX TEMP:  79;                                

JAFFREY        FAIR      65  60  84 CALM      30.15R                  
6HR MIN TEMP:  65; 6HR MAX TEMP:  76;                                

KEENE          FAIR     N/A N/A N/A VRB3      30.12R                  
LEBANON        MOCLDY    67  60  78 CALM      30.10R                  
6HR MIN TEMP:  67; 6HR MAX TEMP:  80;                                

MT WASHINGTON  PTCLDY    46  45  93 N3          N/A                   
6HR MIN TEMP:  45; 6HR MAX TEMP:  53;                                

$$

VTZ005-007-008-200100-
VERMONT
  
CITY           SKY/WX    TMP DP  RH WIND       PRES   REMARKS
ST JOHNSBURY     N/A     69  62  78 MISG      30.08R                  
MONTPELIER     CLOUDY    68  63  84 S5        30.14R                  
BURLINGTON     FAIR      75  61  61 S5        30.07R                  
$$

MAZ007-012-024-CTZ003-RIZ002-NYZ038-NYZ072-200100-
SOUTHERN NEW ENGLAND AND NY
  
CITY           SKY/WX    TMP DP  RH WIND       PRES   REMARKS
BOSTON         CLOUDY    69  61  75 NE13      30.09R                  
WORCESTER      FAIR      63  57  81 NE7       30.11R                  
NANTUCKET      CLOUDY    67  65  93 N14       30.02R                  
PROVIDENCE     CLOUDY    67  59  75 NE9       30.08R                  
HARTFORD       MOCLDY    72  54  53 E12       30.08R                  
ALBANY         MOCLDY    75  57  53 SE3       30.07R                  
NEW YORK CITY  CLOUDY    73  64  73 NE7       30.04R                  
$$

ANZ081-ANZ082-ANZ150-NHZ014-MEZ023>029-200100-
COASTAL MARINE OBSERVATIONS
  
STATION/POSITION TIME  TEMP    WIND        PRES    WAVE
                       AIR SEA DIR/SP/G            HT/PER
                 (UTC) (F)     (DEG/KT/KT) (MB)    (FT/S)
MOUNT DESERT ROC 0000   59      30/ 13/ 14 1019.5R
MATINICUS ROCK   2300   61      50/ 16/ 17 1018.5R
ISLE OF SHOALS   2300   67      40/ 11/ 12 1018.3R
JEFFREYS LEDGE   2336      69                N/A     6/ 6
$$

.............KEY..............
   WCI - WIND CHILL
   TC  - TEMPERATURE IN CELSIUS
   VSB - VISIBILITY IN MILES
   HX  - HEAT INDEX
   FAIR- INDICATES FEW OR NO CLOUDS BELOW 12,000 FT, WITH NO 
         SIGNIFICANT WEATHER AND/OR OBSTRUCTIONS TO VISIBILITY.